[[{"header":{"parameterUnit":"m.s-1","parameterCategory":1,"la1":30.2991,"la2":30.254,"lo1":-89.0895,"lo2":-89.0444,"dy":0.0017,"dx":0.0017,"nx":28,"ny":28,"refTime":"2023-10-25T09:00:00:Z","depth":0,"parameterNumber":2,"parameterNumberName":"U-component_of_WINDS"},"data":[0,0,0,0,0,0,0,0,0,0,0,0,0,0,0,0,0,0,0,0,0,0,0,0,0,0,0,0,0,0,0,0,0,0,0,0,0,0,0,0,0,0,0,0,0,0,0,0,0,0,0,0,0,0,0,0,0,0,-4.5612,-4.5613,0,-4.569,-4.5691,-4.5692,-4.5619,-4.5616,-4.5614,-4.5611,-4.5689,-4.5693,-4.5698,0,0,0,0,0,0,0,0,0,0,0,0,0,-4.54,-4.5405,-4.5612,-4.5613,-4.5614,-4.569,-4.5691,-4.5692,-4.562,-4.5616,-4.5613,-4.5609,-4.5687,-4.5693,-4.5699,0,0,0,0,0,0,0,0,0,0,0,0,0,-4.5487,-4.5406,-4.5612,-4.5587,-4.5586,-4.569,-4.5691,-4.5693,-4.5621,-4.5616,-4.5612,-4.5608,-4.5685,-4.5692,-4.5699,-4.5831,0,0,-4.5721,-4.5725,0,0,0,0,0,0,0,0,-4.5482,-4.5495,-4.559,-4.5589,-4.5588,-4.5641,-4.5645,-4.5739,-4.5622,-4.5607,-4.5611,-4.5606,-4.5676,-4.5684,-4.5708,-4.5835,-4.5838,-4.5722,-4.5726,-4.5729,-4.5732,0,0,0,0,0,0,0,-4.5476,-4.5491,-4.5643,-4.5591,-4.559,-4.5572,-4.558,-4.5663,-4.5665,-4.5608,-4.5603,-4.5614,-4.5675,-4.5701,-4.5709,-4.584,-4.5722,-4.5728,-4.5733,-4.5735,-4.6081,-4.6086,0,0,0,0,0,0,-4.5473,-4.5486,-4.564,-4.5645,-4.5523,-4.558,-4.5588,-4.5628,-4.5664,-4.5666,-4.5617,-4.561,-4.5691,-4.5701,-4.5712,-4.5869,-4.5729,-4.5736,-4.574,-4.6077,-4.6082,-4.6088,0,0,0,0,0,0,-4.5469,-4.5487,-4.5637,-4.5565,-4.5582,-4.5588,-4.5634,-4.5632,-4.5658,-4.5671,-4.5671,-4.5644,-4.5688,-4.5702,-4.5803,-4.5871,-4.5739,-4.5746,-4.6071,-4.6078,-4.6085,-4.6186,0,0,0,0,0,0,-4.5463,-4.5486,-4.5536,-4.5566,-4.5587,-4.5727,-4.5638,-4.5637,-4.5671,-4.5662,-4.5696,-4.5697,-4.5686,-4.5793,-4.581,-4.5879,-4.5752,-4.6065,-4.6074,-4.6083,-4.6176,-4.6195,-4.6212,0,0,0,0,0,-4.5456,-4.556,-4.5539,-4.5558,-4.5649,-4.5731,-4.5743,-4.5728,-4.5677,-4.5727,-4.5736,-4.5696,-4.5862,-4.5804,-4.5823,-4.5894,-4.606,-4.6071,-4.6082,-4.6168,-4.6192,-4.6212,0,0,0,0,0,0,-4.5536,-4.5563,-4.554,-4.5658,-4.5693,-4.5719,-4.5781,-4.5753,-4.5802,-4.5792,-4.5771,-4.5779,-4.5886,-4.5901,-4.5836,-4.6026,-4.5953,-4.5968,-4.6012,-4.6034,-4.6052,-4.6045,-4.5758,0,0,0,0,0,-4.5568,-4.5632,-4.5653,-4.5755,-4.5774,-4.5775,-4.581,-4.5796,-4.5831,-4.5846,-4.5861,-4.5897,-4.5957,-4.5997,-4.6052,-4.6179,-4.6186,-4.6238,-4.6256,-4.6271,-4.6284,-4.6353,-4.6377,-4.6124,-4.6124,-4.6123,0,0,-4.5633,-4.5656,-4.5698,-4.5772,-4.5797,-4.5865,-4.5788,-4.5862,-4.5912,-4.5856,-4.5953,-4.5967,-4.6005,-4.612,-4.6172,-4.6135,-4.6356,-4.6285,-4.6296,-4.6301,-4.6367,-4.6391,-4.6412,-4.6131,-4.613,-4.6129,0,0,-4.5786,-4.5811,-4.5899,-4.5927,-4.5968,-4.5968,-4.599,-4.6021,-4.6029,-4.6126,-4.6086,-4.6146,-4.625,-4.6279,-4.6308,-4.6478,-4.6443,-4.6497,-4.6589,-4.6657,-4.6677,-4.6695,-4.6755,-4.6777,-4.651,-4.651,-4.651,0,-4.5862,-4.5963,-4.5947,-4.6026,-4.606,-4.6015,-4.6105,-4.6133,-4.6189,-4.6214,-4.6173,-4.6304,-4.6327,-4.6449,-4.6491,-4.6516,-4.654,-4.6491,-4.6676,-4.6693,-4.6709,-4.6767,-4.679,-4.6516,-4.6516,-4.6515,-4.6514,0,-4.6054,-4.6125,-4.6191,-4.6249,-4.6291,-4.6374,-4.6372,-4.6417,-4.6401,-4.6406,-4.6507,-4.6534,-4.6595,-4.6623,-4.6607,-4.6744,-4.6721,-4.6679,-4.6605,-4.674,-4.6794,-4.6816,-4.6525,-4.6523,-4.6521,-4.652,0,0,-4.6256,-4.6307,-4.6332,-4.6358,-4.6402,-4.6456,-4.6539,-4.6601,-4.6639,-4.6681,-4.675,-4.6841,-4.6803,-4.6836,-4.6824,-4.6884,-4.7018,-4.6835,-4.6835,-4.6867,-4.7171,-4.7201,-4.7227,-4.6997,-4.7001,-4.7004,-4.7168,0,-4.6411,-4.6554,-4.6545,-4.668,-4.6746,-4.6707,-4.678,-4.6815,-4.6823,-4.6881,-4.689,-4.6955,-4.69,-4.692,-4.6978,-4.6989,-4.7078,-4.6978,-4.706,-4.7063,-4.705,-4.7255,-4.7287,-4.744,-4.7189,-4.7192,-4.7195,0,-4.6609,-4.666,-4.6802,-4.6839,-4.6866,-4.6931,-4.6988,-4.7043,-4.7083,-4.7085,-4.7125,-4.7103,-4.7188,-4.7114,-4.7231,-4.7162,-4.7196,-4.7208,-4.7213,-4.7219,-4.7136,-4.7265,-4.7488,-4.7511,-4.7228,-4.7225,-4.7223,0,-4.6742,-4.6846,-4.6945,-4.6969,-4.7014,-4.7061,-4.7082,-4.7117,-4.7156,-4.7206,-4.7231,-4.7291,-4.7323,-4.737,-4.7365,-4.7312,-4.7484,-4.741,-4.7488,-4.7489,-4.7524,-4.7521,-4.7754,-4.7549,-4.7548,-4.7548,-4.7547,0,-4.6914,-4.7003,-4.7005,-4.7066,-4.7165,-4.7155,-4.7253,-4.7268,-4.7302,-4.7365,-4.7336,-4.7396,-4.7388,-4.7449,-4.7446,-4.7544,-4.7559,-4.7563,-4.7561,-4.7565,-4.7564,-4.7585,-4.7573,-4.7554,-4.7553,-4.7551,-4.755,0,-4.7077,-4.7083,-4.7188,-4.7224,-4.7235,-4.7306,-4.7336,-4.7395,-4.7403,-4.7484,-4.7502,-4.7514,-4.7585,-4.7587,-4.7667,-4.7666,-4.7784,-4.7771,-4.7771,-4.7768,-4.7846,-4.7838,-4.8098,-4.8132,-4.7906,-4.7908,-4.791,0,-4.7186,-4.7254,-4.7298,-4.7339,-4.7363,-4.7429,-4.7469,-4.7463,-4.7506,-4.7559,-4.7611,-4.768,-4.7733,-4.7849,-4.7865,-4.7927,-4.7914,-4.8001,-4.7923,-4.7925,-4.7915,-4.791,-4.7917,-4.8016,-4.8018,-4.802,-4.8022,0,-4.7378,-4.7379,-4.7438,-4.75,-4.7549,-4.7596,-4.764,-4.7676,-4.7675,-4.7725,-4.7798,-4.784,-4.7924,-4.7993,-4.8054,-4.8075,-4.8049,-4.8047,-4.8068,-4.8072,-4.8069,-4.8071,-4.7811,-4.804,-4.8038,-4.8037,-4.8036,-4.8035,-4.7517,-4.7576,-4.7617,-4.7685,-4.7718,-4.7761,-4.7818,-4.7835,-4.7895,-4.7963,-4.7957,-4.8038,-4.8079,-4.8159,-4.8186,-4.825,-4.822,-4.825,-4.8258,-4.8265,-4.8274,-4.8061,-4.8261,-4.8261,-4.826,-4.826,-4.8259,0,-4.7707,-4.7733,-4.7796,-4.786,-4.7914,-4.7887,-4.7935,-4.7982,-4.8054,-4.8095,-4.815,-4.8235,-4.8302,-4.8325,-4.8391,-4.8438,-4.8427,-4.8455,-4.845,-4.8456,-4.8297,-4.8272,-4.8462,-4.8462,-4.8462,-4.8462,-4.8462,-4.8462,-4.7813,-4.7911,-4.7917,-4.8033,-4.8058,-4.8138,-4.8168,-4.8208,-4.8241,-4.8338,-4.8394,-4.841,-4.8444,-4.8513,-4.8574,-4.8579,-4.8604,-4.8637,-4.8637,-4.8487,-4.8467,-4.8447,-4.8423,-4.8643,-4.8643,-4.879,-4.8792,-4.8793]},{"header":{"parameterUnit":"m.s-1","parameterCategory":1,"la1":30.2991,"la2":30.254,"lo1":-89.0895,"lo2":-89.0444,"dy":0.0017,"dx":0.0017,"nx":28,"ny":28,"refTime":"2023-10-25T09:00:00:Z","depth":0,"parameterNumber":3,"parameterNumberName":"V-component_of_WINDS"},"data":[0,0,0,0,0,0,0,0,0,0,0,0,0,0,0,0,0,0,0,0,0,0,0,0,0,0,0,0,0,0,0,0,0,0,0,0,0,0,0,0,0,0,0,0,0,0,0,0,0,0,0,0,0,0,0,0,0,0,2.4552,2.4553,0,2.4601,2.4602,2.4602,2.4584,2.4582,2.4581,2.458,2.4627,2.4629,2.4631,0,0,0,0,0,0,0,0,0,0,0,0,0,2.4441,2.4443,2.4552,2.4553,2.4553,2.4601,2.4602,2.4603,2.4584,2.4582,2.4581,2.458,2.4626,2.4629,2.4632,0,0,0,0,0,0,0,0,0,0,0,0,0,2.4489,2.4444,2.4552,2.455,2.455,2.4601,2.4602,2.4603,2.4584,2.4582,2.4581,2.4579,2.4625,2.4629,2.4632,2.4687,0,0,2.4642,2.4644,0,0,0,0,0,0,0,0,2.4487,2.4493,2.455,2.455,2.455,2.4585,2.458,2.4631,2.4584,2.4571,2.458,2.4578,2.4614,2.4618,2.4631,2.4689,2.4691,2.4643,2.4645,2.4646,2.4647,0,0,0,0,0,0,0,2.4483,2.4491,2.4571,2.455,2.4551,2.4546,2.4551,2.4589,2.4601,2.4572,2.4571,2.4577,2.4614,2.4628,2.4632,2.4692,2.4643,2.4646,2.4648,2.4649,2.48,2.4802,0,0,0,0,0,0,2.448,2.4488,2.457,2.4573,2.4514,2.4549,2.4555,2.4575,2.4601,2.4603,2.4579,2.4576,2.4623,2.4628,2.4633,2.4701,2.4646,2.4649,2.4651,2.4798,2.4801,2.4803,0,0,0,0,0,0,2.4478,2.4487,2.4568,2.453,2.454,2.4553,2.4576,2.4577,2.4591,2.4606,2.4607,2.4591,2.4622,2.4629,2.4675,2.4702,2.4651,2.4654,2.4796,2.4799,2.4802,2.4836,0,0,0,0,0,0,2.4475,2.4487,2.4508,2.4531,2.4542,2.4608,2.4578,2.4579,2.4597,2.4595,2.4617,2.462,2.4621,2.467,2.4678,2.4706,2.4657,2.4793,2.4797,2.4801,2.4832,2.4839,2.4846,0,0,0,0,0,2.4471,2.4514,2.4509,2.4519,2.4569,2.461,2.4616,2.4618,2.46,2.4621,2.4631,2.4619,2.4698,2.4674,2.4684,2.4713,2.4792,2.4796,2.48,2.4829,2.4838,2.4845,0,0,0,0,0,0,2.4491,2.4517,2.4511,2.4563,2.4585,2.4607,2.4633,2.4627,2.4653,2.4649,2.4649,2.4654,2.4702,2.4712,2.4685,2.4769,2.4742,2.4749,2.4761,2.4769,2.4776,2.4772,2.466,0,0,0,0,0,2.4502,2.4534,2.4554,2.4598,2.461,2.462,2.4638,2.4638,2.4659,2.4668,2.4681,2.4702,2.4732,2.4751,2.4779,2.4834,2.4839,2.4859,2.4866,2.4872,2.4877,2.4909,2.4918,2.4817,2.4817,2.4817,0,0,2.4523,2.4542,2.4561,2.4603,2.4619,2.4653,2.4627,2.4663,2.4687,2.4673,2.4718,2.4729,2.4752,2.4803,2.4826,2.4813,2.4906,2.4877,2.4881,2.4884,2.4914,2.4924,2.4932,2.482,2.482,2.4819,0,0,2.458,2.4597,2.4637,2.4655,2.4682,2.4689,2.4699,2.4723,2.473,2.4776,2.4767,2.4796,2.4847,2.4864,2.488,2.4949,2.4939,2.4958,2.4993,2.5024,2.5032,2.5039,2.5064,2.5074,2.4963,2.4963,2.4963,0,2.4604,2.4654,2.4658,2.4695,2.4714,2.4706,2.4746,2.4763,2.4797,2.481,2.4796,2.4862,2.4877,2.4933,2.4951,2.4963,2.4975,2.4954,2.5031,2.5038,2.5044,2.5069,2.5078,2.4966,2.4965,2.4965,2.4965,0,2.4682,2.4718,2.4747,2.4782,2.4805,2.4843,2.4853,2.4875,2.4875,2.4884,2.4931,2.495,2.4983,2.4996,2.4994,2.5053,2.5045,2.503,2.5003,2.5056,2.5079,2.5088,2.4969,2.4968,2.4967,2.4967,0,0,2.475,2.4791,2.4801,2.4819,2.4849,2.4877,2.4916,2.495,2.497,2.4994,2.5028,2.5073,2.5061,2.5079,2.508,2.5107,2.5163,2.509,2.5091,2.5103,2.5231,2.5241,2.5252,2.5157,2.5159,2.516,2.5229,0,2.481,2.488,2.4887,2.495,2.4983,2.4977,2.5012,2.5035,2.5045,2.5075,2.5086,2.5119,2.51,2.5111,2.5138,2.515,2.5188,2.5145,2.5188,2.5189,2.5182,2.5263,2.5274,2.5338,2.5238,2.5239,2.524,0,2.4889,2.4919,2.4986,2.5015,2.5029,2.506,2.5094,2.5123,2.5149,2.5155,2.5177,2.5175,2.5216,2.5188,2.5245,2.5216,2.5234,2.5243,2.5246,2.5249,2.5217,2.5269,2.5358,2.5368,2.5254,2.5253,2.5252,0,2.4933,2.499,2.5038,2.5053,2.5088,2.511,2.5126,2.5151,2.5172,2.5201,2.5215,2.5248,2.5266,2.5292,2.5299,2.5278,2.5356,2.5329,2.5362,2.5362,2.5378,2.5377,2.5471,2.539,2.539,2.539,2.5389,0,2.4999,2.504,2.5059,2.5089,2.5136,2.5143,2.5189,2.5203,2.5226,2.5258,2.5255,2.5285,2.5293,2.5325,2.5331,2.5378,2.5385,2.5391,2.5392,2.5392,2.5391,2.5403,2.5399,2.5392,2.5391,2.5391,2.5391,0,2.5055,2.507,2.5122,2.5153,2.5161,2.5195,2.522,2.5249,2.526,2.5302,2.5312,2.5329,2.5367,2.5377,2.5421,2.5425,2.5481,2.5478,2.5473,2.5473,2.5506,2.5503,2.5611,2.5626,2.5535,2.5536,2.5536,0,2.5097,2.5129,2.5164,2.5187,2.5204,2.524,2.5263,2.5272,2.5296,2.533,2.5355,2.5393,2.5424,2.5484,2.55,2.5535,2.5533,2.5568,2.5538,2.5537,2.5534,2.5532,2.5536,2.5574,2.5575,2.5575,2.5576,0,2.5169,2.5175,2.5209,2.5246,2.5274,2.5304,2.5332,2.535,2.5364,2.5391,2.5431,2.5455,2.5502,2.554,2.5576,2.5591,2.5586,2.5586,2.5596,2.5595,2.5591,2.5595,2.5489,2.5583,2.5582,2.5582,2.5581,2.5581,2.5219,2.5249,2.5279,2.5318,2.5341,2.5368,2.5398,2.5414,2.5448,2.5489,2.5492,2.5536,2.5564,2.5612,2.563,2.5664,2.5653,2.5667,2.567,2.5673,2.5677,2.5587,2.567,2.567,2.567,2.5669,2.5669,0,2.5292,2.5312,2.5348,2.5389,2.542,2.5415,2.5447,2.5473,2.5512,2.5539,2.5571,2.5618,2.5655,2.5676,2.5714,2.5737,2.5736,2.5747,2.5745,2.5749,2.5684,2.5672,2.5747,2.5747,2.5747,2.5747,2.5747,2.5747,2.5333,2.5384,2.5394,2.5457,2.5477,2.5521,2.554,2.5565,2.5588,2.5641,2.5673,2.5687,2.5713,2.5753,2.5787,2.5793,2.5807,2.5819,2.5823,2.5761,2.5753,2.5746,2.5735,2.5822,2.5822,2.5885,2.5886,2.5886]}]]